Weather WX

World > North America > United States > New York

New Paltz, New York Regional Weather

Lat: 41.75N, Lon: 74.08W
Wx Zone: NYZ064
Warning FLW WEATHER ALERT - (More Info. Click Here) Warning
Feedback

New Paltz, NY Regional Weather

Expires:201907171000;;773127
ASUS41 KALY 170910
RWRALY

NEW YORK STATE HOURLY WEATHER ROUNDUP
NATIONAL WEATHER SERVICE ALBANY NY
500 AM EDT WED JUL 17 2019

NOTE: "FAIR" INDICATES FEW OR NO CLOUDS BELOW 12,000 FEET WITH NO
SIGNIFICANT WEATHER AND/OR NO OBSTRUCTIONS TO VISIBILITY.


NYZ032-033-038>043-046>054-057>066-NYZ062>081-082-084-171000-
EAST

  
CITY           SKY/WX    TMP DP  RH WIND       PRES   REMARKS
ALBANY         LGT RAIN  74  69  85 SE5       29.94S                  
GLENS FALLS    LGT RAIN  71  68  90 S7        29.92R                  
POUGHKEEPSIE   CLOUDY    72  69  90 CALM      29.95R                  
NEWBURGH       MOCLDY    73  70  88 CALM      29.98R                  
MONTGOMERY     MOCLDY    71  69  93 CALM      29.96R                  
WHITE PLAINS   FAIR      74  67  78 CALM      29.97S                  
ISLIP          FAIR      76  74  93 SW6       29.97S                  
NEW YORK CITY  MOCLDY    83  65  54 SW5       29.95F                  
CENTRAL PARK   MOCLDY    80  64  58 CALM      29.99S                  
$$


SKY/WX - Weather  TMP - Temperature  DP - Dew Point  RH - Relative Humidity
WIND - Wind Direction/Speed PRES - Barometric Pressure VSB - Visibility
WCI - Wind Chill Index E13G22 Wind - East Wind 13 mph/Gusts of 22 mph